Location: Unspecified
(0.0000°N, 0.0000°E)
Time: 19:50:38
(UTC+00:00)

BEESAT - Pass Details

Date: 30 May 2019
Orbit: 700 x 709 km, 98.6° (Epoch: 17 June)

Event Time Altitude Azimuth Distance (km) Brightness Sun altitude
Rises 05:17:26 0° 191° (S) 3,096 ? -9.3°
Reaches altitude 10° 05:20:05 10° 205° (SSW) 2,177 ? -8.7°
Maximum altitude 05:23:50 23° 257° (WSW) 1,464 ? -7.8°
Drops below altitude 10° 05:27:36 10° 310° (NW) 2,173 ? -6.9°
Sets 05:30:15 0° 324° (NW) 3,089 ? -6.3°
